SCP
0 0 0 0 0 0 0 0 0 0 0 0 0 0 0 0 0 0 0 0 0 0 0 0 0 0 0 0 0 0 0 0 0 0 0 0 0 0 0 0 0 0 0
0 0 0 0 0 0 0 0 0 0 0 0 0 0 0 0 0 0 0 0 0 0 0 0 0 0 0 0 0 0 0 0 0 0 0 0 0 0 0 0 0 0 0
0 0 0 0 0 0 0 0 0 0 0 0 0 0 0 0 0 0 0 0 0 0 0 0 0 0 0 0 0 0 0 0 0 0 0 0 0 0 0 0 0 0 0
0 0 0 0 0 0 0 0 0 0 0 0 0 0 0 0 0 0 0 0 0 0 0 0 0 0 0 0 0 0 0 0 0 0 0 0 0 0 0 0 0 0 0
0 0 0 0 0 0 0 0 0 0 0 0 0 0 0 0 0 0 0 0 0 0 0 0 0 0 0 0 0 0 0 0 0 0 0 0 0 0 0 0 0 0 0
0 0 0 0 0 0 0 0 0 0 0 0 0 0 0 0 0 0 0 0 0 0 0 0 0 0 0 0 0 0 0 0 0 0 0 0 0 0 0 0 0 0 0
0 0 0 0 0 0 0 0 0 0 0 0 0 0 0 0 0 0 0 0 0 0 0 0 0 0 0 0 0 0 0 0 0 0 0 0 0 0 0 0 0 0 0
0 0 0 0 0 0 0 0 0 0 0 0 0 0 0 0 0 0 0 0 0 0 0 0 0 0 0 0 0 0 0 0 0 0 0 0 0 0 0 0 0 0 0
0 0 0 0 0 0 0 0 0 0 0 0 0 0 0 0 0 0 0 0 0 0 0 0 0 0 0 0 0 0 0 0 0 0 0 0 0 0 0 0 0 0 0
0 0 0 0 0 0 0 0 0 0 0 0 0 0 0 0 0 0 0 0 0 0 0 0 0 0 0 0 0 0 0 0 0 0 0 0 0 0 0 0 0 0 0
0 0 0 0 0 0 0 0 0 0 0 0 0 0 0 0 0 0 0 0 0 0 0 0 0 0 0 0 0 0 0 0 0 0 0 0 0 0 0 0 0 0 0
0 0 0 0 0 0 0 0 0 0 0 0 0 0 0 0 0 0 0 0 0 0 0 0 0 0 0 0 0 0 0 0 0 0 0 0 0 0 0 0 0 0 0
0 0 0 0 0 0 0 0 0 0 0 0 0 0 0 0 0 0 0 0 0 0 0 0 0 0 0 0 0 0 0 0 0 0 0 0 0 0 0 0 0 0 0
0 0 0 0 0 0 0 0 0 0 0 0 0 0 0 0 0 0 0 0 0 0 0 0 0 0 0 0 0 0 0 0 0 0 0 0 0 0 0 0 0 0 0
0 0 0 0 0 0 0 0 0 0 0 0 0 0 0 0 0 0 0 0 0 0 0 0 0 0 0 0 0 0 0 0 0 0 0 0 0 0 0 0 0 0 0
0 0 0 0 0 0 0 0 0 0 0 0 0 0 0 0 0 0 0 0 0 0 0 0 0 0 0 0 0 0 0 0 0 0 0 0 0 0 0 0 0 0 0
0 0 0 0 0 0 0 0 0 0 0 0 0 0 0 0 0 0 0 0 0 0 0 0 0 0 0 0 0 0 0 0 0 0 0 0 0 0 0 0 0 0 0
0 0 0 0 0 0 0 0 0 0 0 0 0 0 0 0 0 0 0 0 0 0 0 0 0 0 0 0 0 0 0 0 0 0 0 0 0 0 0 0 0 0 0
0 0 0 0 0 0 0 0 0 0 0 0 0 0 0 0 0 0 0 0 0 0 0 0 0 0 0 0 0 0 0 0 0 0 0 0 0 0 0 0 0 0 0
0 0 0 0 0 0 0 0 0 0 0 0 0 0 0 0 0 0 0 0 0 0 0 0 0 0 0 0 0 0 0 0 0 0 0 0 0 0 0 0 0 0 0
0 0 0 0 0 0 0 0 0 0 0 0 0 0 0 0 0 0 0 0 0 0 0 0 0 0 0 0 0 0 0 0 0 0 0 0 0 0 0 0 0 0 0
0 0 0 0 0 0 0 0 0 0 0 0 0 0 0 0 0 0 0 0 0 0 0 0 0 0 0 0 0 0 0 0 0 0 0 0 0 0 0 0 0 0 0
0 0 0 0 0 0 0 0 0 0 0 0 0 0 0 0 0 0 0 0 0 0 0 0 0 0 0 0 0 0 0 0 0 0 0 0 0 0 0 0 0 0 0
0 0 0 0 0 0 0 0 0 0 0 0 0 0 0 0 0 0 0 0 0 0 0 0 0 0 0 0 0 0 0 0 0 0 0 0 0 0 0 0 0 0 0
0 0 0 0 0 0 0 0 0 0 0 0 0 0 0 0 0 0 0 0 0 0 0 0 0 0 0 0 0 0 0 0 0 0 0 0 0 0 0 0 0 0 0
0 0 0 0 0 0 0 0 0 0 0 0 0 0 0 0 0 0 0 0 0 0 0 0 0 0 0 0 0 0 0 0 0 0 0 0 0 0 0 0 0 0 0
Wind_Speed_500mb
19 25 30 34 37 41 48 51 52 53 55 54 55 58 60 57 55 53 47 45 44 44 46 47 48 47 53 52 57 58 58 57 59 67 66 72 75 74 70 72 73 71 73
7 13 20 28 38 47 47 50 53 53 54 54 55 58 58 59 58 57 55 54 52 51 51 53 54 54 54 59 65 68 70 73 73 75 73 62 61 77 74 75 77 75 73
10 12 10 8 15 30 45 45 43 44 49 50 50 52 53 54 52 54 54 52 51 52 53 55 57 56 58 61 62 65 73 88 90 85 79 30 37 52 61 65 66 69 72
24 25 26 24 20 14 13 25 29 32 36 39 45 48 51 52 49 51 51 51 50 50 53 54 55 56 56 58 58 61 70 69 85 83 97 93 92 68 64 64 58 65 74
34 39 41 39 34 30 26 20 13 14 19 23 28 32 36 33 39 37 41 44 48 48 51 53 54 57 56 56 61 64 67 70 75 83 83 86 94 97 100 84 73 84 86
40 46 48 48 48 45 41 36 28 25 18 12 7 8 13 19 24 26 31 33 38 42 45 47 50 55 56 60 62 70 73 77 78 81 81 88 90 81 84 89 100 95 102
36 42 45 45 43 41 41 40 37 37 33 26 20 13 6 6 12 18 23 29 34 37 41 43 47 49 54 64 70 69 80 76 81 81 85 84 97 82 93 101 102 104 105
34 40 41 41 38 36 34 33 32 32 28 25 22 20 16 13 13 15 17 20 22 26 29 34 40 45 51 58 65 71 76 76 83 84 87 89 94 98 88 98 91 95 92
35 36 36 36 37 35 33 31 30 30 27 25 23 20 19 18 18 19 21 21 24 26 30 33 37 40 44 48 53 60 68 75 81 83 87 89 93 94 95 94 95 96 93
34 36 35 34 34 34 33 30 28 26 25 23 21 20 20 21 22 24 25 27 29 31 33 36 40 44 47 50 55 60 61 67 72 76 81 84 86 89 95 96 98 100 102
34 37 37 35 32 30 27 25 22 18 16 16 18 20 22 23 25 27 29 31 34 36 39 41 44 46 47 48 55 60 65 70 73 75 80 85 84 89 91 92 96 100 98
37 35 33 30 26 22 19 15 13 11 14 16 19 21 23 25 27 30 33 35 37 39 41 44 47 51 53 54 56 59 61 67 73 75 78 83 84 88 87 89 95 100 97
37 34 30 25 21 16 13 11 10 12 14 16 19 22 25 28 31 34 38 41 44 47 50 53 55 56 58 61 64 68 69 69 71 73 76 79 79 84 83 82 90 90 96
38 33 28 22 17 13 10 8 9 11 15 18 22 25 29 33 38 43 47 52 56 59 60 61 63 63 63 64 68 72 75 78 81 81 81 80 78 78 79 81 82 88 90
38 31 26 21 16 12 7 5 7 11 17 24 28 33 37 42 47 51 55 59 61 63 65 66 65 66 67 66 68 70 73 77 79 79 79 81 81 81 76 69 74 75 82
39 32 27 21 17 11 7 4 8 15 23 30 36 43 49 54 59 64 67 70 72 73 74 73 76 76 71 69 71 73 76 76 80 83 82 82 83 82 78 70 66 71 78
41 34 28 23 16 11 5 5 14 23 31 38 44 51 56 61 65 68 70 73 76 78 79 79 80 82 82 78 76 74 77 80 80 81 82 84 82 82 79 72 67 71 73
43 36 28 20 13 5 5 14 24 34 42 49 54 60 64 67 67 69 70 72 76 80 83 84 84 87 88 85 85 82 80 79 79 80 81 80 81 78 75 74 76 75 75
42 36 28 18 9 8 15 25 34 44 52 58 60 60 62 65 67 71 74 76 81 83 85 87 89 90 90 88 87 86 85 85 84 80 77 73 74 73 65 68 75 78 78
41 33 23 15 13 18 27 36 45 52 55 55 56 56 60 64 69 72 76 76 77 83 84 85 83 86 89 86 86 84 83 85 84 81 76 66 60 62 65 66 69 75 74
38 27 20 17 21 29 36 43 46 48 50 54 55 56 58 64 68 74 78 81 82 81 83 84 83 83 82 82 81 80 77 75 76 75 71 67 61 58 58 57 60 63 60
33 25 20 20 27 35 38 39 43 50 54 56 57 61 65 67 71 75 78 79 82 85 86 84 85 84 82 76 73 71 66 61 60 63 61 58 50 47 48 53 54 48 41
31 26 23 24 29 31 35 42 48 54 59 63 67 70 71 71 72 76 78 79 78 80 84 82 83 83 76 71 59 54 51 48 45 43 41 42 45 44 39 32 27 23 19
30 25 22 22 25 32 37 45 51 57 63 69 72 74 75 74 74 75 76 77 74 75 76 75 73 70 66 60 54 51 42 35 29 33 35 31 24 22 19 15 16 15 12
27 23 20 22 27 32 36 45 52 59 65 69 72 72 74 76 78 77 75 75 73 66 67 66 63 58 62 56 49 46 29 26 26 24 16 13 14 18 20 18 18 18 18
23 20 20 24 27 31 39 47 54 61 65 69 69 71 74 76 78 81 83 73 67 59 50 46 45 49 53 48 39 27 18 17 14 7 10 13 15 17 17 19 24 27 19
Wind_Direction_500mb
263 247 235 235 236 236 235 235 236 239 242 242 244 246 250 255 260 264 267 265 263 262 261 262 262 260 262 268 265 263 265 264 266 266 269 269 269 270 274 274 269 275 272
263 232 230 231 235 233 231 233 235 238 240 244 246 250 254 258 262 267 270 269 269 269 270 267 266 268 269 267 265 265 265 263 265 262 263 264 274 272 282 278 276 273 273
110 123 144 189 227 232 228 230 233 239 243 244 246 250 251 257 258 261 267 272 273 273 273 272 273 274 276 277 279 279 276 268 265 263 257 251 264 276 282 273 274 272 268
104 106 103 100 98 114 187 221 230 236 238 239 243 247 255 260 264 267 273 275 277 277 279 279 277 275 278 277 279 280 280 281 278 278 266 267 271 263 279 274 276 272 273
103 101 99 97 96 99 104 118 152 198 220 229 236 243 246 254 260 258 265 274 278 280 277 276 278 280 279 279 277 274 277 275 278 281 278 280 273 265 262 274 275 281 277
107 103 100 97 93 92 94 97 102 106 106 117 149 208 241 255 264 265 265 262 261 271 277 276 277 281 282 281 282 280 279 277 278 279 279 279 273 277 275 273 283 286 283
110 108 107 104 101 98 95 95 95 96 93 86 83 79 51 331 306 299 291 285 280 275 269 267 266 269 275 280 282 279 280 279 280 281 281 279 278 276 282 277 280 281 286
114 109 106 105 104 101 100 98 96 96 93 90 81 73 62 46 20 359 344 329 318 309 301 294 287 283 276 269 265 266 270 275 275 278 277 281 279 279 279 281 282 278 282
122 115 111 107 104 102 96 91 88 87 81 75 69 60 48 33 19 7 354 343 329 320 312 305 300 297 294 290 284 278 275 272 272 275 275 274 277 277 278 279 279 277 277
127 120 115 110 107 103 98 94 88 83 76 66 54 42 27 14 2 351 342 337 331 323 317 311 306 301 297 293 290 288 284 281 279 279 281 280 278 278 276 276 276 275 274
136 129 122 116 110 105 102 94 88 76 63 45 31 17 6 1 354 345 338 334 330 326 324 321 318 315 309 303 297 293 290 287 286 284 283 282 281 279 279 280 277 274 271
145 137 131 125 123 118 106 93 72 45 28 14 4 356 352 346 342 340 338 335 334 331 327 323 320 317 316 313 308 303 299 294 291 289 285 284 284 281 277 274 277 274 272
152 147 142 139 132 117 99 78 48 23 13 4 359 354 350 347 346 343 340 338 334 331 328 324 320 316 314 312 310 308 306 303 301 298 295 293 289 286 284 279 277 274 273
161 159 153 148 137 120 99 72 40 21 9 2 357 351 346 343 340 336 332 329 326 324 322 321 320 318 315 312 307 304 302 302 301 301 301 300 296 291 287 283 279 276 274
167 163 157 149 140 126 106 59 23 14 6 357 350 344 338 333 329 326 323 320 318 316 316 315 313 314 314 315 311 306 303 301 300 300 300 299 298 295 291 284 281 275 275
171 169 167 161 154 149 137 75 20 0 348 340 335 331 328 325 323 320 318 315 314 313 312 312 312 312 311 311 309 308 305 303 301 300 298 297 296 295 293 287 279 272 270
176 173 170 169 167 157 135 5 342 333 327 324 323 322 321 320 319 317 315 314 312 311 310 309 308 308 309 310 307 306 303 303 303 302 301 300 299 297 296 293 285 276 270
179 175 172 171 170 169 322 324 323 321 319 319 319 319 318 317 316 315 313 313 311 310 310 308 308 307 307 309 309 309 306 303 301 300 300 299 298 298 299 296 289 283 280
177 174 172 180 210 275 302 310 312 313 314 316 318 318 317 316 315 313 311 309 307 305 304 305 305 305 305 307 307 307 306 304 303 302 298 296 297 298 295 291 292 293 290
172 175 186 209 252 284 300 307 310 312 315 316 318 318 316 313 311 309 306 304 303 302 303 302 303 304 305 307 307 306 305 303 304 303 300 299 300 299 298 294 292 290 292
178 185 202 235 270 290 301 307 310 312 314 314 315 315 314 312 310 309 308 308 304 301 301 303 303 305 308 309 307 306 304 302 301 299 301 304 303 298 297 295 291 291 295
186 201 222 255 281 294 304 309 311 313 314 313 313 313 313 310 308 307 309 309 308 306 304 305 305 306 310 312 308 305 303 301 297 297 299 302 307 306 304 300 297 295 292
200 215 237 266 285 297 309 313 313 313 313 312 311 309 309 309 307 306 306 306 308 307 307 307 307 307 312 316 315 308 307 304 301 301 306 307 308 309 310 313 318 314 313
214 237 260 279 292 307 314 314 316 318 317 315 312 309 307 308 309 309 307 307 308 307 306 304 303 306 312 321 320 318 313 314 308 307 311 320 336 347 355 6 3 2 6
233 250 267 290 303 309 314 313 314 316 318 318 316 313 310 311 310 310 310 309 309 309 304 298 301 307 309 313 309 313 313 311 313 325 344 10 31 38 35 34 32 20 19
244 261 284 296 302 307 311 310 313 315 317 318 317 316 313 313 313 313 311 310 312 310 301 289 285 288 294 304 303 295 299 309 325 8 43 49 56 58 43 44 48 47 46
Wind_Speed_850mb
19 25 30 34 37 41 48 51 52 53 55 54 55 58 60 57 55 53 47 45 44 44 46 47 48 47 53 52 57 58 58 57 59 67 66 72 75 74 70 72 73 71 73
7 13 20 28 38 47 47 50 53 53 54 54 55 58 58 59 58 57 55 54 52 51 51 53 54 54 54 59 65 68 70 73 73 75 73 62 61 77 74 75 77 75 73
10 12 10 8 15 30 45 45 43 44 49 50 50 52 53 54 52 54 54 52 51 52 53 55 57 56 58 61 62 65 73 88 90 85 79 30 37 52 61 65 66 69 72
24 25 26 24 20 14 13 25 29 32 36 39 45 48 51 52 49 51 51 51 50 50 53 54 55 56 56 58 58 61 70 69 85 83 97 93 92 68 64 64 58 65 74
34 39 41 39 34 30 26 20 13 14 19 23 28 32 36 33 39 37 41 44 48 48 51 53 54 57 56 56 61 64 67 70 75 83 83 86 94 97 100 84 73 84 86
40 46 48 48 48 45 41 36 28 25 18 12 7 8 13 19 24 26 31 33 38 42 45 47 50 55 56 60 62 70 73 77 78 81 81 88 90 81 84 89 100 95 102
36 42 45 45 43 41 41 40 37 37 33 26 20 13 6 6 12 18 23 29 34 37 41 43 47 49 54 64 70 69 80 76 81 81 85 84 97 82 93 101 102 104 105
34 40 41 41 38 36 34 33 32 32 28 25 22 20 16 13 13 15 17 20 22 26 29 34 40 45 51 58 65 71 76 76 83 84 87 89 94 98 88 98 91 95 92
35 36 36 36 37 35 33 31 30 30 27 25 23 20 19 18 18 19 21 21 24 26 30 33 37 40 44 48 53 60 68 75 81 83 87 89 93 94 95 94 95 96 93
34 36 35 34 34 34 33 30 28 26 25 23 21 20 20 21 22 24 25 27 29 31 33 36 40 44 47 50 55 60 61 67 72 76 81 84 86 89 95 96 98 100 102
34 37 37 35 32 30 27 25 22 18 16 16 18 20 22 23 25 27 29 31 34 36 39 41 44 46 47 48 55 60 65 70 73 75 80 85 84 89 91 92 96 100 98
37 35 33 30 26 22 19 15 13 11 14 16 19 21 23 25 27 30 33 35 37 39 41 44 47 51 53 54 56 59 61 67 73 75 78 83 84 88 87 89 95 100 97
37 34 30 25 21 16 13 11 10 12 14 16 19 22 25 28 31 34 38 41 44 47 50 53 55 56 58 61 64 68 69 69 71 73 76 79 79 84 83 82 90 90 96
38 33 28 22 17 13 10 8 9 11 15 18 22 25 29 33 38 43 47 52 56 59 60 61 63 63 63 64 68 72 75 78 81 81 81 80 78 78 79 81 82 88 90
38 31 26 21 16 12 7 5 7 11 17 24 28 33 37 42 47 51 55 59 61 63 65 66 65 66 67 66 68 70 73 77 79 79 79 81 81 81 76 69 74 75 82
39 32 27 21 17 11 7 4 8 15 23 30 36 43 49 54 59 64 67 70 72 73 74 73 76 76 71 69 71 73 76 76 80 83 82 82 83 82 78 70 66 71 78
41 34 28 23 16 11 5 5 14 23 31 38 44 51 56 61 65 68 70 73 76 78 79 79 80 82 82 78 76 74 77 80 80 81 82 84 82 82 79 72 67 71 73
43 36 28 20 13 5 5 14 24 34 42 49 54 60 64 67 67 69 70 72 76 80 83 84 84 87 88 85 85 82 80 79 79 80 81 80 81 78 75 74 76 75 75
42 36 28 18 9 8 15 25 34 44 52 58 60 60 62 65 67 71 74 76 81 83 85 87 89 90 90 88 87 86 85 85 84 80 77 73 74 73 65 68 75 78 78
41 33 23 15 13 18 27 36 45 52 55 55 56 56 60 64 69 72 76 76 77 83 84 85 83 86 89 86 86 84 83 85 84 81 76 66 60 62 65 66 69 75 74
38 27 20 17 21 29 36 43 46 48 50 54 55 56 58 64 68 74 78 81 82 81 83 84 83 83 82 82 81 80 77 75 76 75 71 67 61 58 58 57 60 63 60
33 25 20 20 27 35 38 39 43 50 54 56 57 61 65 67 71 75 78 79 82 85 86 84 85 84 82 76 73 71 66 61 60 63 61 58 50 47 48 53 54 48 41
31 26 23 24 29 31 35 42 48 54 59 63 67 70 71 71 72 76 78 79 78 80 84 82 83 83 76 71 59 54 51 48 45 43 41 42 45 44 39 32 27 23 19
30 25 22 22 25 32 37 45 51 57 63 69 72 74 75 74 74 75 76 77 74 75 76 75 73 70 66 60 54 51 42 35 29 33 35 31 24 22 19 15 16 15 12
27 23 20 22 27 32 36 45 52 59 65 69 72 72 74 76 78 77 75 75 73 66 67 66 63 58 62 56 49 46 29 26 26 24 16 13 14 18 20 18 18 18 18
23 20 20 24 27 31 39 47 54 61 65 69 69 71 74 76 78 81 83 73 67 59 50 46 45 49 53 48 39 27 18 17 14 7 10 13 15 17 17 19 24 27 19
Wind_Direction_850mb
263 247 235 235 236 236 235 235 236 239 242 242 244 246 250 255 260 264 267 265 263 262 261 262 262 260 262 268 265 263 265 264 266 266 269 269 269 270 274 274 269 275 272
263 232 230 231 235 233 231 233 235 238 240 244 246 250 254 258 262 267 270 269 269 269 270 267 266 268 269 267 265 265 265 263 265 262 263 264 274 272 282 278 276 273 273
110 123 144 189 227 232 228 230 233 239 243 244 246 250 251 257 258 261 267 272 273 273 273 272 273 274 276 277 279 279 276 268 265 263 257 251 264 276 282 273 274 272 268
104 106 103 100 98 114 187 221 230 236 238 239 243 247 255 260 264 267 273 275 277 277 279 279 277 275 278 277 279 280 280 281 278 278 266 267 271 263 279 274 276 272 273
103 101 99 97 96 99 104 118 152 198 220 229 236 243 246 254 260 258 265 274 278 280 277 276 278 280 279 279 277 274 277 275 278 281 278 280 273 265 262 274 275 281 277
107 103 100 97 93 92 94 97 102 106 106 117 149 208 241 255 264 265 265 262 261 271 277 276 277 281 282 281 282 280 279 277 278 279 279 279 273 277 275 273 283 286 283
110 108 107 104 101 98 95 95 95 96 93 86 83 79 51 331 306 299 291 285 280 275 269 267 266 269 275 280 282 279 280 279 280 281 281 279 278 276 282 277 280 281 286
114 109 106 105 104 101 100 98 96 96 93 90 81 73 62 46 20 359 344 329 318 309 301 294 287 283 276 269 265 266 270 275 275 278 277 281 279 279 279 281 282 278 282
122 115 111 107 104 102 96 91 88 87 81 75 69 60 48 33 19 7 354 343 329 320 312 305 300 297 294 290 284 278 275 272 272 275 275 274 277 277 278 279 279 277 277
127 120 115 110 107 103 98 94 88 83 76 66 54 42 27 14 2 351 342 337 331 323 317 311 306 301 297 293 290 288 284 281 279 279 281 280 278 278 276 276 276 275 274
136 129 122 116 110 105 102 94 88 76 63 45 31 17 6 1 354 345 338 334 330 326 324 321 318 315 309 303 297 293 290 287 286 284 283 282 281 279 279 280 277 274 271
145 137 131 125 123 118 106 93 72 45 28 14 4 356 352 346 342 340 338 335 334 331 327 323 320 317 316 313 308 303 299 294 291 289 285 284 284 281 277 274 277 274 272
152 147 142 139 132 117 99 78 48 23 13 4 359 354 350 347 346 343 340 338 334 331 328 324 320 316 314 312 310 308 306 303 301 298 295 293 289 286 284 279 277 274 273
161 159 153 148 137 120 99 72 40 21 9 2 357 351 346 343 340 336 332 329 326 324 322 321 320 318 315 312 307 304 302 302 301 301 301 300 296 291 287 283 279 276 274
167 163 157 149 140 126 106 59 23 14 6 357 350 344 338 333 329 326 323 320 318 316 316 315 313 314 314 315 311 306 303 301 300 300 300 299 298 295 291 284 281 275 275
171 169 167 161 154 149 137 75 20 0 348 340 335 331 328 325 323 320 318 315 314 313 312 312 312 312 311 311 309 308 305 303 301 300 298 297 296 295 293 287 279 272 270
176 173 170 169 167 157 135 5 342 333 327 324 323 322 321 320 319 317 315 314 312 311 310 309 308 308 309 310 307 306 303 303 303 302 301 300 299 297 296 293 285 276 270
179 175 172 171 170 169 322 324 323 321 319 319 319 319 318 317 316 315 313 313 311 310 310 308 308 307 307 309 309 309 306 303 301 300 300 299 298 298 299 296 289 283 280
177 174 172 180 210 275 302 310 312 313 314 316 318 318 317 316 315 313 311 309 307 305 304 305 305 305 305 307 307 307 306 304 303 302 298 296 297 298 295 291 292 293 290
172 175 186 209 252 284 300 307 310 312 315 316 318 318 316 313 311 309 306 304 303 302 303 302 303 304 305 307 307 306 305 303 304 303 300 299 300 299 298 294 292 290 292
178 185 202 235 270 290 301 307 310 312 314 314 315 315 314 312 310 309 308 308 304 301 301 303 303 305 308 309 307 306 304 302 301 299 301 304 303 298 297 295 291 291 295
186 201 222 255 281 294 304 309 311 313 314 313 313 313 313 310 308 307 309 309 308 306 304 305 305 306 310 312 308 305 303 301 297 297 299 302 307 306 304 300 297 295 292
200 215 237 266 285 297 309 313 313 313 313 312 311 309 309 309 307 306 306 306 308 307 307 307 307 307 312 316 315 308 307 304 301 301 306 307 308 309 310 313 318 314 313
214 237 260 279 292 307 314 314 316 318 317 315 312 309 307 308 309 309 307 307 308 307 306 304 303 306 312 321 320 318 313 314 308 307 311 320 336 347 355 6 3 2 6
233 250 267 290 303 309 314 313 314 316 318 318 316 313 310 311 310 310 310 309 309 309 304 298 301 307 309 313 309 313 313 311 313 325 344 10 31 38 35 34 32 20 19
244 261 284 296 302 307 311 310 313 315 317 318 317 316 313 313 313 313 311 310 312 310 301 289 285 288 294 304 303 295 299 309 325 8 43 49 56 58 43 44 48 47 46